Weather History for Columbus, OH

Change the Weather History Date:

Sunday, March 23, 2014

  Actual Average Record
Temperature  
Mean Temperature 32 °F 44 °F  
Max Temperature 39 °F 54 °F 81 °F (1907)
Min Temperature 24 °F 35 °F 9 °F (1885)
Degree Days  
Heating Degree Days 33 21  
Month to date heating degree days 627 565  
Since 1 July heating degree days 5011 4560  
Cooling Degree Days 0 0  
Month to date cooling degree days 0 0  
Year to date cooling degree days 0 0  
Moisture  
Dew Point 16 °F    
Average Humidity 51    
Maximum Humidity 70    
Minimum Humidity 32    
Precipitation  
Precipitation 0.00 in 0.11 in 1.95 in (2007)
Month to date precipitation 1.32 2.14  
Year to date precipitation 6.11 7.12  
Snow  
Snow 0.00 in 0.10 in 3.80 in (1974)
Month to date snowfall 2.9 3.6  
Since 1 July snowfall 53.9 25.0  
Snow Depth 0.00 in    
Sea Level Pressure  
Sea Level Pressure 30.26 in    
Wind  
Wind Speed 12 mph (NNW)    
Max Wind Speed 22 mph    
Max Gust Speed 26 mph    
Visibility 10 miles    
Events      
T = Trace of Precipitation, MM = Missing Value Source: NWS Daily Summary

Daily Weather History Graph

Daily Weather History Graph

Search for Another Location

Airport:

Trip Planner

Search our weather history database for the weather conditions in past years. The results will help you decide how hot, cold, wet, or windy it might be!

Date:

Astronomy

Mar. 23, 2014 Rise Set
Actual Time 7:30 AM EDT 7:46 PM EDT
Civil Twilight 7:03 AM EDT 8:13 PM EDT
Nautical Twilight 6:31 AM EDT 8:45 PM EDT
Astronomical Twilight 5:59 AM EDT 9:17 PM EDT
Moon 2:02 AM EDT (3/23) 12:10 PM EDT (3/23)
Length of Visible Light 13h 10m
Length of Day
12h 16m
Waning Gibbous, 55% of the Moon is Illuminated
Mar 23
Waning Gibbous
Mar 23
Last Quarter
Mar 30
New
Apr 7
First Quarter
Apr 15
Full

Hourly Weather History & Observations

Time (EDT) Temp. Windchill Dew Point Humidity Pressure Visibility Wind Dir Wind Speed Gust Speed Precip Events Conditions
12:51 AM 39.0 °F 33.4 °F 26.1 °F 60% 30.18 in 10.0 mi NW 8.1 mph - N/A   Overcast
1:51 AM 37.9 °F 32.7 °F 25.0 °F 60% 30.18 in 10.0 mi North 6.9 mph - N/A   Overcast
2:51 AM 37.9 °F 29.2 °F 25.0 °F 60% 30.18 in 10.0 mi NNW 15.0 mph 18.4 mph N/A   Overcast
3:51 AM 37.0 °F 30.4 °F 26.1 °F 65% 30.17 in 10.0 mi NNW 9.2 mph - N/A   Overcast
4:43 AM 35.6 °F 27.5 °F 26.6 °F 70% 30.16 in 10.0 mi NNW 11.5 mph - N/A   Overcast
4:51 AM 36.0 °F 27.5 °F 26.1 °F 67% 30.19 in 10.0 mi NNW 12.7 mph - N/A   Overcast
5:51 AM 34.0 °F 24.6 °F 23.0 °F 64% 30.20 in 10.0 mi NNW 13.8 mph - N/A   Overcast
6:51 AM 33.1 °F 23.4 °F 19.9 °F 59% 30.22 in 10.0 mi North 13.8 mph - N/A   Overcast
7:26 AM 32.0 °F 21.6 °F 21.2 °F 64% 30.22 in 10.0 mi NNW 15.0 mph - N/A   Overcast
7:42 AM 30.2 °F 18.9 °F 21.2 °F 69% 30.22 in 10.0 mi North 16.1 mph - N/A   Overcast
7:51 AM 30.9 °F 19.8 °F 21.0 °F 67% 30.25 in 10.0 mi North 16.1 mph - N/A   Overcast
8:20 AM 30.2 °F 19.8 °F 19.4 °F 64% 30.23 in 10.0 mi North 13.8 mph - N/A   Overcast
8:51 AM 30.0 °F 19.1 °F 19.0 °F 64% 30.25 in 10.0 mi North 15.0 mph - N/A   Mostly Cloudy
9:31 AM 28.4 °F 17.0 °F 15.8 °F 59% 30.25 in 10.0 mi North 15.0 mph - N/A   Overcast
9:51 AM 30.0 °F 18.7 °F 15.1 °F 54% 30.28 in 10.0 mi North 16.1 mph - N/A   Overcast
10:14 AM 30.2 °F 18.9 °F 10.4 °F 44% 30.26 in 10.0 mi North 16.1 mph - N/A   Overcast
10:51 AM 30.9 °F 20.2 °F 12.0 °F 46% 30.29 in 10.0 mi North 15.0 mph - N/A   Overcast
11:51 AM 30.9 °F 20.7 °F 10.0 °F 42% 30.30 in 10.0 mi North 13.8 mph - N/A   Overcast
12:51 PM 33.1 °F 23.9 °F 9.0 °F 37% 30.29 in 10.0 mi NW 12.7 mph 18.4 mph N/A   Mostly Cloudy
1:51 PM 34.0 °F 23.4 °F 9.0 °F 35% 30.28 in 10.0 mi NNW 17.3 mph 24.2 mph N/A   Mostly Cloudy
2:51 PM 34.0 °F 23.4 °F 8.1 °F 34% 30.27 in 10.0 mi NNW 17.3 mph 23.0 mph N/A   Mostly Cloudy
3:51 PM 35.1 °F 25.9 °F 8.1 °F 33% 30.27 in 10.0 mi NNW 13.8 mph 23.0 mph N/A   Scattered Clouds
4:51 PM 35.1 °F 26.9 °F 9.0 °F 34% 30.27 in 10.0 mi NNW 11.5 mph 21.9 mph N/A   Scattered Clouds
5:51 PM 34.0 °F 26.0 °F 9.0 °F 35% 30.28 in 10.0 mi North 10.4 mph - N/A   Scattered Clouds
6:51 PM 32.0 °F 21.2 °F 8.1 °F 37% 30.30 in 10.0 mi NNW 16.1 mph 20.7 mph N/A   Mostly Cloudy
7:51 PM 30.0 °F 21.1 °F 9.0 °F 41% 30.32 in 10.0 mi NNW 10.4 mph - N/A   Scattered Clouds
8:51 PM 28.9 °F 19.8 °F 9.0 °F 43% 30.33 in 10.0 mi North 10.4 mph - N/A   Scattered Clouds
9:51 PM 28.9 °F 18.6 °F 9.0 °F 43% 30.35 in 10.0 mi NNW 12.7 mph - N/A   Mostly Cloudy
10:51 PM 28.0 °F 20.0 °F 9.0 °F 45% 30.35 in 10.0 mi NNW 8.1 mph - N/A   Mostly Cloudy
11:51 PM 26.1 °F 20.5 °F 10.0 °F 51% 30.35 in 10.0 mi North 4.6 mph - N/A   Partly Cloudy